STARLINK-37193, 68390

Orbit data source: Space-Track

STARLINK-37193, 68390 is a payload satellite owned by SpaceX/Seattle (US) in SSO that was launched on Thu, 26 Mar 2026 UTC via an FALCON 9 launch vehicle from the Air Force Western Test Range (AFWTR). Payload-class satellites include a variety of spacecraft equipped with specific instruments for various scientific and technological missions. These include communications satellites like Starlink; space stations such as the ISS; scientific satellites like the Hubble; Earth observation satellites from companies like Planet Labs, Umbra, and HawkEye 360; GPS; miniature CubeSats for education and research; and military/defense satellites.

Loading next visibility...
Identifier
68390, 2026-063L
Orbit
SSO
Country
Flag of USUS
Related business
Manufacturer
SpaceX/Seattle
Mission
Operational spacecraft
Bus & Motor
STARLINK V2MO, Unknown motor
Mass
575 kg wet, ~530 kg dry
Launch date (UTC)
2026-03-26 (3 months ago)
Launch vehicle
FALCON 9
Launch site
Air Force Western Test Range (AFWTR)
Object type
Payload
Rocket body
Debris
Shape & HBR
Unknown shape, 17.7 m
Radar Cross Section
Large (>1 m²)

Expand to show TLE details & history
Last TLE update: 7 hours ago

TLE from 7 hours ago
0 STARLINK-37193
1 68390U 26063L   26165.83016395  .00052608  00000-0  96207-3 0  9996
2 68390  97.2842 310.7225 0000831  72.7552 287.3790 15.49202334 12956
Epoch: 2026-06-14T19:55Z
TLE epoch observation values (Epoch: 2026-06-14T19:55:26.165Z)
Latitude
-0.00003°
Longitude
108.73821°
Altitude
422.023 km
Speed
7.658 km/s
True Right ascension
20h 42m 53s
True Declination
0° 00' 00"
Sunlit
Object was in full shadow at epoch
Visualization orbit readout
Latitude
Unknown
Longitude
Unknown
Altitude
Unknown
Speed
Unknown
Apparent Right ascension
Unknown
Apparent Declination
Unknown
Sunlit
N/A
Visualization observer readout
Local Sidereal Time
12:59:12
Azimuth
Unknown
Elevation
Unknown
Doppler factor
Unknown
Orbital elements
Apogee altitude
416.545 km
Perigee altitude
415.415 km
Semi-major axis
6,794.117 km
Eccentricity
0.00008
Inclination
97.2842°
RAAN
310.7225°
Arg. of periapsis
72.7552°
True anomaly
287.36991°
Mean anomaly
287.379°
Eccentric anomaly
287.37446°
Mean motion
3.87564 °/min
Orbital period
92.89 mins
BSTAR
0.00096207
Loading maneuver chart data...
Computing Atmospheric mass density...
Loading historical data...
Loading historical data...
Loading historical data...
Loading historical data...
Loading historical data...
Loading historical data...
Loading historical data...

Documentation

Showing up to 5 results
|